GFSFLT2_925_spd_132.txt.gz
Wind_Speed
3 8 12 15 10 16 7 7 12 4 7 6 14 10 6 7 2 15 15 13 13 20 26 25 30 27 27 30 25 23 21 19
8 5 13 12 3 7 4 5 18 8 3 1 15 4 12 9 11 8 4 13 13 19 25 27 30 29 25 32 27 24 22 22
3 1 14 7 5 9 7 6 5 1 1 9 12 24 10 4 5 6 15 25 15 7 25 28 25 30 28 28 28 24 22 23
4 4 13 10 6 18 11 2 2 4 4 11 9 4 10 5 5 6 8 6 10 18 10 26 24 28 28 29 28 25 24 21
11 7 22 3 5 8 9 6 6 4 3 2 22 10 12 9 9 4 9 10 10 17 25 20 22 20 22 20 29 29 24 23
10 2 7 4 14 6 2 6 6 9 8 12 6 6 7 12 11 12 9 10 6 15 24 13 20 17 28 26 14 27 26 25
16 2 11 8 8 14 5 11 11 6 11 10 14 15 5 5 7 11 11 11 5 5 13 29 2 6 5 20 25 20 24 23
12 15 16 11 11 12 17 6 2 27 1 11 13 7 1 2 4 8 10 12 10 8 10 19 13 12 10 13 7 13 11 9
13 12 8 9 8 8 11 17 20 9 6 5 14 13 1 2 6 5 7 9 7 4 4 3 3 8 10 2 6 6 8 9
10 13 13 6 2 10 10 7 2 11 16 12 10 4 4 2 6 6 3 7 6 6 5 2 3 10 6 6 4 10 9 7
10 11 13 16 12 6 11 10 13 14 18 16 15 14 6 4 2 4 7 5 6 6 5 1 3 1 10 1 1 4 9 10
9 11 13 8 9 7 5 6 18 15 14 10 5 4 6 9 10 5 7 8 5 7 6 4 4 1 4 10 6 3 4 8
9 9 10 9 6 4 6 4 12 10 8 13 8 6 13 12 11 12 9 9 11 9 8 7 7 9 5 12 11 7 6 10
8 11 11 11 5 4 5 6 8 6 4 10 15 11 6 7 10 12 12 11 12 11 12 13 12 12 15 14 13 12 13 11
8 6 8 3 5 3 3 6 5 2 7 9 11 12 10 4 7 9 9 6 11 14 14 12 13 10 12 8 8 8 10 12
9 12 10 9 9 4 5 7 7 5 4 12 14 10 7 7 9 7 9 8 9 12 13 14 13 11 9 10 10 11 12 10
9 9 12 13 13 9 8 5 6 10 8 7 8 12 9 6 8 6 6 9 9 9 11 13 14 13 10 9 10 12 12 12
9 10 5 8 16 22 18 8 4 8 11 8 7 10 8 7 9 8 8 8 8 9 10 13 13 11 10 9 13 13 12 11
10 11 12 11 14 12 8 27 6 8 8 7 7 13 11 9 9 10 8 11 8 9 9 11 12 10 10 10 9 12 14 13

GFSFLT2_925_spd_135.txt.gz
Wind_Speed
7 5 6 5 5 8 6 2 2 1 3 4 7 8 13 14 12 14 12 7 15 21 23 33 32 34 35 36 33 30 27 22
5 5 10 8 3 6 4 2 3 2 2 4 11 12 10 15 13 17 13 8 4 15 25 33 33 36 36 39 36 33 30 26
1 7 5 6 3 4 3 4 3 2 2 4 5 10 12 15 5 12 8 16 5 11 9 32 32 36 36 35 36 33 30 29
16 12 8 4 2 4 4 3 3 3 5 7 4 10 15 20 7 6 12 15 2 11 16 9 29 33 36 35 34 34 31 30
3 2 2 2 3 5 4 2 6 6 4 9 9 9 24 3 5 2 3 7 8 8 18 19 16 26 34 34 32 31 28 28
5 4 4 3 6 6 5 2 5 5 5 8 8 10 14 15 4 6 6 5 7 8 13 20 23 7 17 29 28 25 28 28
10 8 6 8 9 11 7 6 6 3 4 4 5 10 16 10 7 8 10 7 2 4 9 14 22 28 17 31 30 23 10 31
6 9 7 6 13 13 12 4 2 4 5 6 5 9 6 9 8 7 7 8 8 6 9 13 13 21 25 12 29 27 27 32
5 8 8 6 3 1 8 8 6 3 3 7 6 2 7 9 9 4 2 5 7 3 11 10 14 12 23 3 21 28 22 19
4 7 5 8 7 3 13 7 4 4 4 7 6 5 7 6 10 6 2 2 5 7 7 13 3 8 8 1 6 9 16 18
3 4 8 10 8 6 8 8 8 8 7 4 7 8 5 6 5 5 5 3 7 2 5 4 2 4 5 7 8 5 7 6
1 3 4 1 8 7 4 4 9 11 10 7 5 3 2 7 6 4 2 2 2 2 2 4 5 3 4 2 7 10 4 1
4 4 4 6 7 5 3 3 10 7 7 7 5 4 6 8 7 3 1 7 6 6 8 5 4 6 15 14 11 9 9 9
1 3 3 4 6 5 4 3 11 7 8 7 8 9 7 7 10 11 7 7 7 5 8 9 8 16 18 16 13 18 18 17
4 4 5 5 6 5 5 4 7 15 13 15 13 9 9 9 8 10 10 12 9 10 7 8 7 6 13 11 11 10 11 14
2 2 5 6 3 7 7 5 2 11 17 13 10 10 9 7 9 12 9 10 10 9 9 6 8 7 7 9 10 11 13 13
3 6 4 9 4 3 10 11 12 12 13 16 14 10 8 8 8 12 13 8 11 8 8 9 7 9 9 8 10 13 12 11
3 3 4 4 3 5 9 5 4 8 7 7 7 8 10 9 16 16 14 13 12 11 10 11 9 10 12 11 11 15 14 13
2 2 3 6 5 2 5 6 3 10 10 13 24 17 16 15 17 19 14 10 12 12 13 11 13 10 8 9 12 13 15 13

GFSFLT2_925_spd_138.txt.gz
Wind_Speed
3 4 5 2 5 4 6 4 2 3 4 3 6 9 12 11 10 8 7 4 6 13 28 31 32 34 37 37 36 34 33 30
2 7 10 7 2 3 4 3 2 3 1 4 7 7 9 14 14 17 6 6 3 6 24 34 36 36 36 41 40 39 34 32
5 5 3 4 3 6 5 4 5 1 5 5 2 6 7 11 17 18 11 7 3 6 10 30 33 35 35 36 36 36 35 33
2 5 4 5 5 5 4 3 1 4 5 4 2 5 8 6 8 15 6 2 5 8 4 11 27 29 33 33 34 38 35 33
7 7 3 3 3 4 5 3 5 5 4 3 4 6 6 3 6 8 6 3 4 6 7 9 9 23 26 28 35 36 35 37
6 7 4 3 5 5 6 3 3 4 3 5 6 8 7 4 4 6 4 3 5 4 2 13 12 13 10 21 25 36 38 37
5 6 5 2 5 7 8 6 5 3 8 11 13 12 5 6 3 8 5 5 2 6 4 10 9 12 11 1 14 26 34 32
5 7 4 5 10 12 10 5 5 4 1 3 2 0 5 6 2 3 4 2 5 1 2 5 2 9 10 2 3 8 13 38
3 5 6 5 5 4 4 5 8 5 5 6 4 5 4 5 6 4 2 2 2 4 4 3 9 6 6 4 8 5 25 21
3 4 1 7 8 5 10 6 3 8 4 6 6 3 4 5 3 3 3 3 2 3 4 7 9 7 5 6 3 7 19 17
4 3 5 8 1 3 8 3 1 8 8 8 8 5 2 5 5 5 4 3 0 3 3 4 5 7 8 5 4 9 24 27
3 3 3 5 3 13 6 2 4 7 10 11 5 2 4 8 6 7 11 6 4 3 2 3 5 1 2 5 8 11 18 19
2 3 6 5 7 1 5 7 5 6 7 8 5 6 4 8 5 10 10 11 7 7 5 2 1 7 11 10 12 10 10 14
2 2 5 4 4 5 6 3 8 6 6 9 7 5 5 6 6 3 5 8 6 6 6 2 5 10 16 14 13 17 17 19
6 6 6 4 7 6 8 8 7 7 7 8 9 8 7 5 5 6 11 11 7 6 6 4 5 9 14 11 10 14 16 19
3 5 3 3 3 7 8 7 7 7 7 9 8 5 5 4 4 5 12 13 11 8 6 4 4 5 8 11 10 13 18 18
2 4 2 4 2 3 7 6 5 7 8 7 6 3 2 2 6 10 11 11 7 7 6 5 4 6 6 7 11 16 17 16
4 6 4 4 4 0 6 10 8 8 8 7 10 9 5 3 7 11 15 9 6 6 7 7 7 4 6 6 8 13 16 16
5 6 7 4 6 4 8 8 9 12 10 10 7 9 12 10 14 15 13 12 11 8 7 6 5 4 5 6 7 10 14 16

GFSFLT2_925_spd_141.txt.gz
Wind_Speed
6 3 4 3 4 4 7 3 2 3 5 4 5 7 6 7 8 4 6 7 11 13 20 26 26 32 36 36 38 38 35 31
3 4 8 5 5 3 3 3 3 4 4 4 3 3 4 4 7 5 5 8 6 7 21 29 33 35 38 38 41 41 37 35
3 3 2 1 2 6 5 4 5 2 5 5 5 4 4 5 5 5 6 3 4 2 4 27 31 32 36 36 37 35 39 36
3 2 0 2 4 5 5 3 1 4 5 2 5 8 6 6 8 5 6 4 3 1 4 1 24 27 30 30 32 40 41 39
7 6 2 2 3 4 6 3 4 5 5 2 5 11 5 7 6 7 1 4 5 4 4 3 3 23 25 29 36 33 35 37
7 6 3 3 4 4 5 4 4 5 4 4 8 8 1 3 2 6 1 3 4 1 4 8 9 5 16 26 24 25 29 31
4 5 2 4 5 8 8 5 5 4 7 7 10 4 4 4 0 4 3 2 6 4 2 9 9 11 9 4 20 26 28 29
5 4 3 3 3 9 5 5 3 4 6 7 5 2 5 3 5 4 3 2 1 6 5 4 10 7 8 5 4 12 23 29
3 2 3 4 3 4 4 5 7 5 8 5 3 5 5 4 3 4 4 4 3 4 5 7 7 5 4 5 4 3 6 9
3 3 2 7 6 7 5 5 4 4 3 3 2 4 5 5 4 0 3 4 3 1 7 5 8 3 7 10 11 10 14 15
4 4 5 4 4 2 5 2 2 5 5 4 4 2 6 6 4 2 2 2 2 3 4 5 6 6 6 11 20 22 24 27
3 4 4 6 6 3 3 2 4 6 6 6 5 1 5 6 2 3 2 3 2 1 3 4 6 5 6 4 2 9 16 17
3 3 6 6 5 3 2 7 6 7 7 7 5 6 3 3 3 3 3 7 5 3 1 4 7 7 5 5 3 4 7 11
3 3 3 6 4 6 6 2 6 6 7 9 9 4 1 3 5 5 6 5 4 6 7 8 2 7 7 8 8 9 12 13
7 6 5 4 5 3 8 8 6 7 7 9 7 5 4 5 4 5 7 6 5 7 8 9 7 3 8 8 12 12 14 13
3 2 2 2 1 5 3 7 7 7 8 8 6 8 6 5 5 7 10 7 7 7 7 8 7 5 5 4 10 16 17 19
1 3 2 1 3 6 5 2 3 3 5 8 7 6 7 7 7 10 14 12 9 10 6 5 5 6 5 6 9 13 15 16
4 5 4 4 5 6 7 6 8 8 5 7 7 7 6 6 14 17 17 14 11 10 9 6 4 6 8 5 7 12 15 15
5 5 4 2 5 3 6 6 5 7 7 8 10 14 10 5 15 19 16 16 17 14 9 6 6 7 7 7 8 9 12 12